Simultaneous Nadir Overpasses (SNOs) Predictions

Prediction of SNOs between AQUA and METOP-C Satellite Orbit:

Table of predicted SNOs for the next 14.0 days since TLE Epoch: 8/2/2019
Index Date (AQUA) Time (AQUA) Lat,Lon (AQUA) SZA (AQUA ) Date (METOP-C) Time (METOP-C) Lat,Lon (METOP-C) SZA (METOP-C ) Distance(km) Time Diff (sec)
1 08/04/2019 22:00:01 -73.72, 24.46 123.36 08/04/2019 21:58:51 -73.71, 24.40 123.35 2.14 70
2 08/04/2019 22:49:30 73.80,-168.08 56.74 08/04/2019 22:49:30 73.79,-168.08 56.74 1.08 0
3 08/04/2019 23:38:57 -73.87, -0.59 123.18 08/04/2019 23:40:09 -73.89, -0.52 123.17 3.04 72
4 08/07/2019 17:34:15 -73.73, 90.87 122.58 08/07/2019 17:33:12 -73.74, 90.87 122.56 0.79 63
5 08/07/2019 18:23:44 73.81,-101.67 57.53 08/07/2019 18:23:51 73.82,-101.61 57.53 1.90 7
6 08/07/2019 19:13:15 -74.09, 65.35 122.17 08/07/2019 19:14:26 -74.11, 66.44 122.20 33.28 71
7 08/10/2019 13:08:30 -73.75, 157.28 121.76 08/10/2019 13:07:34 -73.77, 157.35 121.73 3.03 56
8 08/10/2019 13:57:58 73.78, -35.15 58.29 08/10/2019 13:58:14 73.79, -35.26 58.31 3.71 16
9 08/10/2019 14:47:36 -74.41, 131.03 121.01 08/10/2019 14:48:43 -74.38, 133.54 121.15 75.14 67
10 08/13/2019 08:42:45 -73.77,-136.33 120.90 08/13/2019 08:41:57 -73.75,-136.30 120.92 2.89 48
11 08/13/2019 09:32:13 73.80, 31.24 59.15 08/13/2019 09:32:36 73.81, 31.20 59.16 2.23 23
12 08/16/2019 04:16:58 -73.74, -69.83 120.06 08/16/2019 04:16:18 -73.77, -69.82 120.02 3.54 40
13 08/16/2019 05:06:27 73.82, 97.63 60.04 08/16/2019 05:06:57 73.84, 97.66 60.05 2.15 30




NCC Satellite Simultaneous Nadir Overpasses (SNOs) Prediction Service
